Location: Berlin
(42.3812°N, 71.6370°W)
Time: 12:35:04
(UTC+00:00)

Cosmos 1943 - Pass Details

Date: 19 February 2026
Orbit: 830 x 850 km, 71.0° (Epoch: 8 March)

Event Time Altitude Azimuth Distance (km) Brightness Sun altitude
Rises 23:14:46 0° 343° (NNW) 3,423 6.5 -10.0°
Reaches altitude 10° 23:17:32 10° 354° (N) 2,483 5.7 -10.5°
Maximum altitude 23:22:32 30° 55° (NE) 1,468 4.0 -11.5°
Enters shadow 23:26:47 13° 112° (ESE) 2,247 4.9 -12.2°
